Content
SEND FEEDBACK

Daily
Averages
Monthly
Summary
Spain

PALMA, SPAIN


Home > Europe > Spain
Elevation: 26 feet     Latitude: 39 33N     Longitude: 002 44E

WEATHER
 
SELECT A DAY
Number of Records: 297,253;   Date Range: 7/1/96 - 7/22/14
 
SHARE

PRINT THIS DATA

[ ← Previous Day ]
WEATHER ALMANAC - JULY 13, 2013
[ Next Day → ]
[ °C ]   °F
Weather ElementAverageHighLow
Temperature79.4 °F87.8 °F (7:30 pm)71.6 °F (2:30 am)
Dewpoint62.6 °F69.8 °F (8:00 pm)53.6 °F (3:00 pm)
Humidity57.5 %83 % (2:30 am)28 % (11:00 am)
Barometer30.03 in30.07 in (11:00 am)30.01 in (4:00 am)
Wind Speed4 mph15.7 mph (8:00 pm)
Wind Gust15 mph (8:30 am)
Weather ElementAverage
Visibility13 mi
Wind DirectionENE (76.3 °)

Weather ElementTotal
Precipitation---
Cooling Degree Days14.7 (Base 65)
Growing Degree Days29.7 (Base 50)
Averaged from 55 records on July 13, 2013
WEATHER CONDITIONS BREAKOUT
WIND DIRECTION BREAKOUT
WEATHER BY HOUR - JULY 13, 2013
[ °C ]   °F
Local TimeTemperatureDewpointHumidityBarometerVisibilityWind DirectionWind SpeedGust SpeedPrecipitationEventsConditions
12:30 AM75.2 °F68.0 °F78 %30.04 inVariable1.2 mphClear
1:00 AM73.4 °F66.2 °F78 %30.04 inENE (70°)3.5 mphClear
1:30 AM73.4 °F66.2 °F78 %30.04 inCalmClear
2:00 AM72.0 °F65.0 °F72 %30.05 in11.0 miCalmClear
2:00 AM73.4 °F66.2 °F78 %30.04 inCalmClear
2:30 AM71.6 °F66.2 °F83 %30.04 inENE (60°)2.3 mphClear
3:00 AM71.6 °F64.4 °F78 %30.04 inENE (70°)2.3 mphClear
3:30 AM71.6 °F64.4 °F78 %30.04 inCalmClear
4:00 AM71.6 °F64.4 °F78 %30.01 inCalmClear
4:30 AM71.6 °F64.4 °F78 %30.01 inNE (50°)1.2 mphClear
5:00 AM72.0 °F64.0 °F69 %30.01 in11.0 miCalmClear
5:00 AM73.4 °F64.4 °F73 %30.01 inCalmClear
5:30 AM73.4 °F66.2 °F78 %30.01 inNE (50°)2.3 mphClear
6:00 AM73.4 °F66.2 °F78 %30.01 inNE (40°)3.5 mphClear
6:30 AM73.4 °F66.2 °F78 %30.01 inVariable1.2 mphClear
7:00 AM75.2 °F64.4 °F69 %30.01 inCalmClear
7:30 AM75.2 °F64.4 °F69 %30.01 inVariable2.3 mphClear
8:00 AM75.0 °F59.0 °F49 %30.01 in17.0 miWNW (300°)6.7 mphPartly Cloudy
8:00 AM75.2 °F60.8 °F61 %30.01 in6.2 miNE (50°)4.6 mphPartly Cloudy
8:30 AM77.0 °F59.0 °F54 %30.01 in6.2 miNorth (360°)3.5 mph15.0 mphPartly Cloudy
9:00 AM78.8 °F57.2 °F47 %30.01 in6.2 miNNE (30°)5.8 mphPartly Cloudy
9:30 AM78.8 °F62.6 °F57 %30.04 inEast (80°)5.8 mphClear
10:00 AM78.8 °F66.2 °F65 %30.04 inVariable2.3 mphClear
10:30 AM84.2 °F62.6 °F48 %30.04 inVariable2.3 mphClear
11:00 AM85.0 °F57.0 °F28 %30.07 in16.0 miSSW (210°)8.9 mphOvercast
11:00 AM86.0 °F57.2 °F37 %30.06 inVariable2.3 mphClear
11:30 AM84.2 °F60.8 °F45 %30.06 inSouth (190°)4.6 mphClear
12:00 PM84.2 °F60.8 °F45 %30.04 inVariable2.3 mphClear
12:30 PM84.2 °F57.2 °F40 %30.04 inVariable1.2 mphClear
1:00 PM82.4 °F62.6 °F51 %30.04 inVariable2.3 mphClear
1:30 PM84.2 °F60.8 °F45 %30.04 inENE (60°)3.5 mphClear
2:00 PM84.0 °F56.0 °F28 %30.05 in17.0 miEast (90°)6.9 mphMostly Cloudy
2:00 PM84.2 °F55.4 °F37 %30.04 inEast (100°)5.8 mphClear
2:30 PM84.2 °F55.4 °F37 %30.04 inVariable2.3 mphClear
3:00 PM86.0 °F53.6 °F33 %30.04 inESE (120°)8.1 mphClear
3:30 PM84.2 °F55.4 °F37 %30.04 inENE (70°)4.6 mphClear
4:00 PM84.2 °F60.8 °F45 %30.04 inNE (40°)8.1 mphClear
4:30 PM84.2 °F59.0 °F42 %30.04 inNE (50°)6.9 mphClear
5:00 PM85.0 °F59.0 °F31 %30.02 in17.0 miNE (50°)8.1 mphMostly Cloudy
5:00 PM86.0 °F59.0 °F40 %30.01 inNE (50°)8.1 mphClear
5:30 PM86.0 °F59.0 °F40 %30.01 inNE (40°)8.1 mphClear
6:00 PM86.0 °F57.2 °F37 %30.01 inNE (40°)6.9 mphClear
6:30 PM86.0 °F57.2 °F37 %30.01 inNNE (20°)4.6 mphClear
7:00 PM86.0 °F57.2 °F37 %30.01 inNNE (30°)3.5 mph15.0 mphClear
7:30 PM87.8 °F57.2 °F35 %30.01 inVariable1.2 mphClear
8:00 PM85.0 °F68.0 °F47 %30.01 in19.0 miSSW (210°)15.7 mphMostly Cloudy
8:00 PM84.2 °F69.8 °F62 %30.01 inSW (220°)10.4 mphClear
8:30 PM80.6 °F69.8 °F70 %30.01 inSW (220°)11.5 mphClear
9:00 PM80.6 °F68.0 °F65 %30.01 inSW (220°)10.4 mphClear
9:30 PM78.8 °F69.8 °F74 %30.01 inSSW (210°)5.8 mphClear
10:00 PM78.8 °F69.8 °F74 %30.04 inSW (230°)3.5 mphClear
10:30 PM78.8 °F68.0 °F69 %30.06 inSW (220°)2.3 mphClear
11:00 PM76.0 °F67.0 °F66 %30.07 in16.0 miCalmClear
11:00 PM75.2 °F68.0 °F78 %30.06 inCalmClear
11:30 PM75.2 °F68.0 °F78 %30.06 inESE (120°)1.2 mphClear
Hourly data recorded from LEPA, located miles away from Palma, Spain







STORIES FROM OUR PARTNERS